Location: Chavannes
(47.1090°N, 0.2226°W)
Time: 15:13:50
(UTC+00:00)

Cosmos 2150 Rocket - Pass Details

Date: 16 October 2021
Orbit: 750 x 807 km, 74.0° (Epoch: 05 December)

Event Time Altitude Azimuth Distance (km) Brightness Sun altitude
Rises 18:13:15 0° 196° (SSW) 3,307 7.5 -11.3°
Reaches altitude 10° 18:15:39 10° 195° (SSW) 2,377 6.8 -11.7°
Maximum altitude 18:21:04 80° 110° (ESE) 818 4.0 -12.6°
Drops below altitude 10° 18:26:28 10° 24° (NNE) 2,367 6.3 -13.5°
Sets 18:28:51 0° 24° (NNE) 3,292 7.1 -13.9°
